Angoon, AK

6:48 AM AKST on December 06, 2019 (GMT -0900)
Angoon

Weather History for PAGN - May, 2019

Change the Weather History Date:

Sunday, May 5, 2019

  Actual Average (PASI) Record (PASI)
Temperature  
Mean Temperature 46 °F 46 °F  
Max Temperature 52 °F 51 °F 70 °F (1972)
Min Temperature 42 °F 40 °F 29 °F (1965)
Degree Days  
Heating Degree Days 18 19  
Month to date heating degree days 98  
Moisture  
Dew Point 42 °F    
Average Humidity 87    
Maximum Humidity 100    
Minimum Humidity 68    
Precipitation  
Precipitation 0.03 in 0.14 in 1.61 in (1982)
Month to date precipitation 0.68  
Year to date precipitation 26.05  
Sea Level Pressure  
Sea Level Pressure 30.03 in    
Wind  
Wind Speed 1 mph (SW)    
Max Wind Speed 6 mph    
Max Gust Speed -    
Visibility 10 miles    
Events Rain    
T = Trace of Precipitation, MM = Missing Value Source: NWS Daily Summary

Daily Weather History Graph

Daily Weather History Graph

Search for Another Location

Airport or City:

Astronomy

May. 05, 2019 Rise Set
Actual Time 4:58 AM AKDT 8:52 PM AKDT
Civil Twilight 4:09 AM AKDT 9:42 PM AKDT
Nautical Twilight 2:57 AM AKDT 10:55 PM AKDT
Astronomical Twilight 1:27 AM AKDT 12:22 AM AKDT
Moon 5:56 AM AKDT (5/5) 9:54 PM AKDT (5/5)
Length of Visible Light 17h 32m
Length of Day
15h 54m
New Moon, 1% of the Moon is Illuminated
May 5
New Moon
May 11
First Quarter
May 18
Full
May 26
Last Quarter
Jun 3
New

Hourly Weather History & Observations

Time (AKDT) Temp. Dew Point Humidity Pressure Visibility Wind Dir Wind Speed Gust Speed Precip Events Conditions
12:56 AM 43.0 °F 42.1 °F 97% 29.98 in 10.0 mi Calm Calm - 0.00 in Rain Light Rain
1:56 AM 43.0 °F 42.1 °F 97% 29.98 in 10.0 mi Calm Calm - 0.01 in Rain Light Rain
2:56 AM 43.0 °F 42.1 °F 97% 29.99 in 10.0 mi Calm Calm - 0.00 in Rain Light Rain
3:23 AM 42.8 °F 42.8 °F 100% 30.02 in 9.0 mi Calm Calm - 0.00 in   Overcast
3:56 AM 43.0 °F 42.1 °F 97% 29.99 in 10.0 mi Calm Calm - 0.00 in   Overcast
4:56 AM 43.0 °F 42.1 °F 97% 29.99 in 10.0 mi Calm Calm - N/A   Overcast
5:56 AM 43.0 °F 42.1 °F 97% 30.01 in 10.0 mi Calm Calm - N/A   Overcast
6:44 AM 44.6 °F 42.8 °F 93% 30.04 in 10.0 mi Calm Calm - N/A   Overcast
6:56 AM 44.1 °F 42.1 °F 93% 30.02 in 10.0 mi Calm Calm - N/A   Overcast
7:38 AM 44.6 °F 42.8 °F 93% 30.05 in 10.0 mi Calm Calm - N/A   Overcast
7:56 AM 45.0 °F 42.1 °F 90% 30.03 in 10.0 mi Calm Calm - N/A   Overcast
8:10 AM 44.6 °F 42.8 °F 93% 30.06 in 10.0 mi Calm Calm - N/A   Overcast
8:56 AM 46.0 °F 43.0 °F 89% 30.03 in 10.0 mi Calm Calm - N/A   Overcast
9:56 AM 50.0 °F 42.1 °F 74% 30.04 in 10.0 mi Variable 3.5 mph - N/A   Overcast
10:14 AM 48.2 °F 42.8 °F 82% 30.07 in 10.0 mi SSW 4.6 mph - N/A   Overcast
10:56 AM 48.0 °F 42.1 °F 80% 30.04 in 10.0 mi SW 5.8 mph - N/A   Mostly Cloudy
11:56 AM 50.0 °F 41.0 °F 71% 30.04 in 10.0 mi Variable 3.5 mph - N/A   Overcast
12:56 PM 51.1 °F 42.1 °F 71% 30.05 in 10.0 mi Variable 4.6 mph - N/A   Partly Cloudy
1:56 PM 50.0 °F 39.9 °F 68% 30.05 in 10.0 mi Variable 4.6 mph - N/A   Overcast
2:56 PM 50.0 °F 39.9 °F 68% 30.04 in 10.0 mi Variable 4.6 mph - N/A   Overcast
3:56 PM 50.0 °F 39.9 °F 68% 30.04 in 10.0 mi Variable 4.6 mph - N/A   Overcast
4:56 PM 48.9 °F 42.1 °F 77% 30.03 in 10.0 mi Variable 4.6 mph - 0.00 in Rain Light Rain
5:56 PM 48.0 °F 43.0 °F 83% 30.04 in 10.0 mi Calm Calm - 0.01 in Rain Light Rain
6:56 PM 46.9 °F 42.1 °F 83% 30.04 in 10.0 mi Calm Calm - 0.01 in Rain Light Rain
7:23 PM 46.4 °F 42.8 °F 87% 30.06 in 8.0 mi Calm Calm - 0.00 in Rain Light Rain
7:37 PM 46.4 °F 42.8 °F 87% 30.06 in 10.0 mi Calm Calm - 0.00 in Rain Light Rain
7:56 PM 46.0 °F 44.1 °F 93% 30.04 in 10.0 mi Calm Calm - 0.00 in Rain Light Rain
8:56 PM 45.0 °F 43.0 °F 93% 30.04 in 10.0 mi Calm Calm - 0.00 in   Overcast
9:56 PM 45.0 °F 42.1 °F 90% 30.04 in 10.0 mi Calm Calm - N/A   Overcast
10:56 PM 44.1 °F 43.0 °F 96% 30.04 in 10.0 mi Calm Calm - N/A   Overcast
11:56 PM 44.1 °F 43.0 °F 96% 30.03 in 10.0 mi Calm Calm - 0.00 in   Overcast